Starlink 30759

operational
NORAD ID: 58122 Int'l Des: 2023-162 Owner: SPXS Country: US Constellation: starlink
LEOCIRCULAR

Starlink 30759について

説明を読み込み中...

リアルタイム位置

3D地球を読み込み中...

次回通過

高度履歴

Altitude vs Time

uPlot chart will show altitude changes over time

軌道要素

1 58122U 23162E 25304.74581839 .00000305 00000-0 37644-4 0 9997
2 58122 43.0035 113.7254 0001524 285.1446 74.9228 15.02540534112915
Epoch: Oct 31, 2025 • Age: 30 hours

現在のステータス

高度 568.9 km
速度 7.58 km/s
衛星直下点 -36.21°S, 58.39°W
打ち上げ日 Oct 22, 2023
運用期間 2 years
タイプ internet

技術仕様

分類 Payload
質量 730.00 kg
乾燥質量 700.00 kg
総質量 730.00 kg
長さ 0.30 m
直径 4.10 m
スパン 29.00 m
形状 Box + pan
製造者 SPXS
バスタイプ Starlink V2M
フェーズステータス In Orbit
所有者/国 SPXS/US

大規模コンステレーション

Loading constellations...